This is the latest recevied weather packets stored in our database for station/object F5LKO-13. If no packets are shown the sender has not sent any weather packets the latest 10 day(s).
| Time | Temp. | Humidity | Pressure | Rain* | Wind** | Luminosity | Snow |
|---|---|---|---|---|---|---|---|
| 1777732793 | 17.78° C | 99% | 1017.2 hPa | 1.02 mm | - | 0 W/m² | - |
| 1777732487 | 17.78° C | 99% | 1017.3 hPa | 1.02 mm | - | 0 W/m² | - |
| 1777732190 | 17.22° C | 99% | 1017.3 hPa | 0.51 mm | - | 1 W/m² | - |
| 1777731875 | 17.22° C | 99% | 1017.3 hPa | 0.51 mm | - | 1 W/m² | - |
| 1777731569 | 17.22° C | 99% | 1017.2 hPa | 0.51 mm | - | 1 W/m² | - |
| 1777731263 | 17.22° C | 99% | 1017.4 hPa | 0.51 mm | - | 0 W/m² | - |
| 1777730957 | 17.22° C | 99% | 1017.6 hPa | 0.51 mm | - | 0 W/m² | - |
| 1777730651 | 17.22° C | 99% | 1017.7 hPa | 0 mm | - | 0 W/m² | - |
| 1777730353 | 17.78° C | 99% | 1017.8 hPa | 0 mm | - | 0 W/m² | - |
| 1777730037 | 17.22° C | 99% | 1018 hPa | 2.29 mm | - | 0 W/m² | - |
| 1777729732 | 17.22° C | 99% | 1018.1 hPa | 1.52 mm | - | 0 W/m² | - |
| 1777729426 | 17.78° C | 99% | 1018.4 hPa | 1.02 mm | - | 0 W/m² | - |
| 1777729120 | 18.33° C | 99% | 1018.7 hPa | 1.02 mm | - | 0 W/m² | - |
| 1777728814 | 18.89° C | 99% | 1018.9 hPa | 0.51 mm | - | 0 W/m² | - |
| 1777728517 | 19.44° C | 99% | 1019.1 hPa | 0 mm | - | 0 W/m² | - |
| 1777728202 | 20° C | 99% | 1019.2 hPa | 0 mm | - | 0 W/m² | - |
| 1777727896 | 21.11° C | 99% | 1018.9 hPa | 0 mm | - | 0 W/m² | - |
| 1777727590 | 21.11° C | 99% | 1018.4 hPa | 0 mm | - | 0 W/m² | - |
| 1777727284 | 21.67° C | 99% | 1018.3 hPa | 0 mm | - | 1 W/m² | - |
| 1777726979 | 21.67° C | 99% | 1018.1 hPa | 0 mm | - | 2 W/m² | - |
| 1777726683 | 22.22° C | 99% | 1017.9 hPa | 0 mm | - | 3 W/m² | - |
| 1777726368 | 22.22° C | 99% | 1017.8 hPa | 0 mm | - | 4 W/m² | - |
| 1777726062 | 22.78° C | 99% | 1017.7 hPa | 0 mm | - | 5 W/m² | - |
| 1777725756 | 23.33° C | 99% | 1017.8 hPa | 0 mm | - | 6 W/m² | - |
| 1777725450 | 23.89° C | 99% | 1017.9 hPa | 0 mm | - | 9 W/m² | - |
* Rain latest hour (hover to see other rain measurements)
** Current wind speed in m/s (hover to see current wind gust speed)